STARLINK-35355, 66448

Orbit data source: Space-Track

STARLINK-35355, 66448 is a payload satellite owned by SpaceX/Seattle (US) in LEO that was launched on Tue, 11 Nov 2025 UTC via an FALCON 9 launch vehicle from the Air Force Eastern Test Range (AFETR). Payload-class satellites include a variety of spacecraft equipped with specific instruments for various scientific and technological missions. These include communications satellites like Starlink; space stations such as the ISS; scientific satellites like the Hubble; Earth observation satellites from companies like Planet Labs, Umbra, and HawkEye 360; GPS; miniature CubeSats for education and research; and military/defense satellites.

Loading next visibility...
Identifier
66448, 2025-259AC
Orbit
LEO
Country
Flag of USUS
Related business
Manufacturer
SpaceX/Seattle
Mission
Operational Commercial Communications
Bus & Motor
STARLINK V2MO, Unknown motor
Mass
575 kg wet, ~530 kg dry
Launch date (UTC)
2025-11-11 (7 months ago)
Launch vehicle
FALCON 9
Launch site
Air Force Eastern Test Range (AFETR)
Object type
Payload
Rocket body
Debris
Shape & HBR
Box + 2 Pan, 17.7 m
Radar Cross Section
36.964 m², Large (>1 m²)

Expand to show TLE details & history
Last TLE update: 13 hours ago

TLE from 13 hours ago
0 STARLINK-35355
1 66448U 25259AC  26150.13798227  .00023131  00000-0  84706-3 0  9992
2 66448  42.9971 174.7124 0001416 206.5879 153.4900 15.27594973 31948
Epoch: 2026-05-30T03:18Z
TLE epoch observation values (Epoch: 2026-05-30T03:18:41.668Z)
Latitude
-0.00001°
Longitude
-122.61955°
Altitude
483.649 km
Speed
7.625 km/s
True Right ascension
11h 38m 50s
True Declination
0° 00' 00"
Sunlit
Object was in daylight at epoch
Visualization orbit readout
Latitude
Unknown
Longitude
Unknown
Altitude
Unknown
Speed
Unknown
Apparent Right ascension
Unknown
Apparent Declination
Unknown
Sunlit
N/A
Visualization observer readout
Local Sidereal Time
02:00:53
Azimuth
Unknown
Elevation
Unknown
Doppler factor
Unknown
Orbital elements
Apogee altitude
485.922 km
Perigee altitude
483.978 km
Semi-major axis
6,863.087 km
Eccentricity
0.00014
Inclination
42.9971°
RAAN
174.7124°
Arg. of periapsis
206.5879°
True anomaly
153.49724°
Mean anomaly
153.49°
Eccentric anomaly
153.49362°
Mean motion
3.81737 °/min
Orbital period
94.31 mins
BSTAR
0.00084706
Loading maneuver chart data...
Computing Atmospheric mass density...
Loading historical data...
Loading historical data...
Loading historical data...
Loading historical data...
Loading historical data...
Loading historical data...
Loading historical data...

Documentation

Showing up to 5 results
|